Location: Cornospital
(48.0620°N, 3.3837°W)
Time: 19:44:09
(UTC+00:00)

SL-16 R/B - Pass Details

Date: 17 June 2021
Orbit: 842 x 847 km, 71.0° (Epoch: 03 August)

Event Time Altitude Azimuth Distance (km) Brightness Sun altitude
Exits shadow 23:06:36 15° 117° (ESE) 2,131 3.9 -16.9°
Maximum altitude 23:08:07 17° 98° (E) 2,041 4.0 -17.0°
Drops below altitude 10° 23:11:32 10° 61° (ENE) 2,471 4.8 -17.1°
Sets 23:14:51 0° 41° (NE) 3,411 5.9 -17.3°
